LFBT

Tarbes-Lourdes-Pyrénées Airport

Airport
ICAO code
LFBT
IATA Code
LDE
Summary
ICAO Region
EUR
ICAO Territory
Location

Ossun, Midi-Pyrenees

Serving
Tarbes
Elevation
1259 ft
Coordinates
43° 10' 57" N , 0° 0' 15" W
KCC
Airport WX
Fog
Metar
Observation
LFBT 031900Z AUTO 20005KT CAVOK 01/M01 Q1036 NOSIG
Station
Tarbes Ossun Lourdes
Date/Time
2023-02-03 19:00:00
Wind direction
200°
Wind speed
05 kts
Lowest cloud amount
clouds and visibility OK
Temperature
1°C
Dew point
-1°C
Humidity
86%
QNH
1036 hPa
Weather condition
n/a

Description

International airport serving Tarbes.

Climatology

Temperate Marine climate/Oceanic climate (Köppen climate classification Cfb). Moderately cool summer and comparatively warm winter. Prevailing south-westerly winds from the Atlantic Ocean.

Runways

Designator Length Width Surface Rops
2/20 3000 45 ASP Yes/Yes

Airport map

Aerial View

Airport accidents

SKYbrary Partners:

Safety knowledge contributed by: